sat.trackr.live / text

‹ back to catalog

GEESAT-4 07

NORAD 65125 · 2025-170G

PAYLOAD ACTIVE UNKNOWN

§ Identity

Operator
Country
PRC
Launch date
2025-08-08
Launch site
YSLA
Launch vehicle
Mass (kg)
RCS (m²)

External: N2YO · Heavens-Above · Gunter

§ Orbital elements

Epoch: 2026-05-25T04:03:43.435008Z

Period
97.04 min
Inclination
49.9929°
Eccentricity
0.0017923
Mean motion
14.83935293 rev/d
Perigee alt
604.4 km
Apogee alt
629.5 km
Semi-major
6,995.1 km
B*
1.9840e-4
RAAN
280.9689°
Arg perigee
324.7198°
Mean anomaly
35.2553°
Rev number
4,301

§ Raw data

GEESAT-4 071 65125U 25170G   26145.16925272  .00001440  00000+0  19840-3 0  99992 65125  49.9929 280.9689 0017923 324.7198  35.2553 14.83935293 43019

JSON: /api/v1/satellites/65125 · /tle

For live sub-satellite position, see the globe view (requires WebGL).

§ Visibility from observer

Set your observer location to see the next 7 days of passes ≥ 10°. The values pass through the URL so the page stays shareable.

No JS? Fill the form by hand. The geolocation button needs JavaScript.